User: anonymous   Login
Location: Unspecified
(0.0000°N, 0.0000°E)
Time: 01:26:21
(UTC+00:00)
Language:

Spot 2 - Orbit

View from above orbital plane
View from above orbital plane
View from above satellite
View from above satellite

Ground track
Ground track

The orbit data is extracted from the following two-line orbital elements,

1 20436U 90005A   19022.45518463 -.00000003  00000-0  98649-5 0  9994
2 20436  98.6712 331.9028 0144102 237.6372 121.0815 14.66407205518656
Epoch (UTC): 22 January 2019 10:55:27
Eccentricity: 0.0144102
inclination: 98.6712°
perigee height: 571 km
apogee height: 774 km
right ascension of ascending node: 331.9028°
argument of perigee: 237.6372°
revolutions per day: 14.66407205
mean anomaly at epoch: 121.0815°
orbit number at epoch: 51865

The dashed part of the orbit path shows where the satellite is in the earth's shadow,  

DLR